Date String (YYYY-MM-DD hh:mm:ss) UTC,Instrument flags,Ambient pressure (hPa),Sample flow (lpm),Bypass flow (lpm),Sample temperature (°C),Ambient temperature (°C),ASC tube jacket temperature (°C),LED temperature (°C),Box temperature (°C),Sample RH (%),Span deviation,Mass concentration (μg/m³),Mass concentration (μg/m³),Mass concentration (μg/m³)
DateTimeUTC,F1_M11,P_M11,Q1_M11,Q2_M11,T1_M11,T2_M11,T3_M11,T4_M11,T5_M11,U1_M11,ZSPAN_M11,X2_M11,X0_M11,X1_M11
2021-10-18 17:00:00,,0821.8,5.00,0.00,30.8,30.0,00.0,39.8,32.6,11.5,-001.2,0006.69,0015.30,0005.75
2021-10-18 17:01:00,,0821.8,4.99,0.00,30.8,30.1,00.0,39.8,32.6,11.5,-001.7,0006.62,0015.42,0005.68
2021-10-18 17:02:00,,0821.8,4.99,0.00,30.9,30.1,00.0,39.8,32.6,11.2,-002.0,0006.58,0016.01,0005.63
2021-10-18 17:03:00,,0821.8,5.00,0.00,30.9,30.1,00.0,39.8,32.6,11.1,-001.5,0006.61,0016.70,0005.63
2021-10-18 17:04:00,,0821.8,4.99,0.00,30.9,30.1,00.0,39.8,32.6,11.2,-001.3,0006.68,0017.76,0005.66
2021-10-18 17:05:00,,0821.8,5.01,0.00,30.9,30.1,00.0,39.9,32.7,11.3,-001.3,0006.66,0017.20,0005.68
2021-10-18 17:06:00,,0821.7,4.99,0.00,30.9,30.1,00.0,39.9,32.7,11.5,-001.3,0006.69,0016.64,0005.69
2021-10-18 17:07:00,,0821.7,5.00,0.00,30.9,30.2,00.0,39.9,32.7,11.4,-001.5,0006.77,0016.91,0005.74
2021-10-18 17:08:00,,0821.7,5.01,0.00,31.0,30.2,00.0,39.9,32.7,11.5,-001.6,0006.84,0016.45,0005.77
2021-10-18 17:09:00,,0821.7,4.99,0.00,31.0,30.2,00.0,39.9,32.7,11.5,-001.1,0006.88,0016.57,0005.82
2021-10-18 17:10:00,,0821.7,5.00,0.00,31.0,30.3,00.0,40.0,32.8,11.2,-000.4,0006.96,0017.16,0005.87
2021-10-18 17:11:00,,0821.7,5.01,0.00,31.0,30.3,00.0,40.0,32.8,10.9,-000.1,0006.99,0017.49,0005.95
2021-10-18 17:12:00,,0821.6,5.00,0.00,31.1,30.3,00.0,40.0,32.8,10.9,0000.2,0007.10,0017.33,0006.03
2021-10-18 17:13:00,,0821.6,5.00,0.00,31.1,30.3,00.0,40.0,32.8,10.7,0000.2,0007.20,0016.98,0006.11
2021-10-18 17:14:00,,0821.6,4.99,0.00,31.1,30.4,00.0,40.0,32.9,10.8,-000.6,0007.22,0016.82,0006.17
2021-10-18 17:15:00,,0821.6,5.00,0.00,31.1,30.4,00.0,40.1,32.9,11.0,-000.8,0007.22,0016.24,0006.20
2021-10-18 17:16:00,,0821.6,5.01,0.00,31.1,30.0,00.0,40.1,32.8,11.1,-001.0,0007.26,0016.35,0006.21
2021-10-18 17:17:00,,0821.5,4.99,0.00,31.0,27.9,00.0,40.1,32.3,11.3,-001.0,0007.30,0016.41,0006.22
2021-10-18 17:18:00,,0821.5,5.01,0.00,30.8,26.3,00.0,40.0,31.8,11.4,-000.7,0007.25,0016.21,0006.19
2021-10-18 17:19:00,,0821.5,4.99,0.00,30.7,26.4,00.0,40.0,31.8,11.7,-001.1,0007.16,0016.49,0006.17
2021-10-18 17:20:00,,0821.5,5.00,0.00,30.6,26.9,00.0,39.9,31.9,11.7,-001.2,0007.15,0016.82,0006.15
2021-10-18 17:21:00,,0821.6,4.99,0.00,30.5,27.4,00.0,39.8,31.9,11.7,-001.0,0007.10,0015.60,0006.10
2021-10-18 17:22:00,,0821.6,5.00,0.00,30.5,27.9,00.0,39.8,32.0,11.4,-002.2,0007.02,0014.90,0006.04
2021-10-18 17:23:00,,0821.6,5.01,0.00,30.5,28.3,00.0,39.7,32.0,11.1,-002.2,0006.92,0015.07,0005.94
2021-10-18 17:24:00,,0821.6,5.00,0.00,30.5,28.6,00.0,39.7,32.1,11.0,-001.8,0006.76,0015.58,0005.81
2021-10-18 17:25:00,,0821.6,5.01,0.00,30.5,28.9,00.0,39.7,32.2,11.1,-001.4,0006.66,0015.29,0005.68
2021-10-18 17:26:00,,0821.6,4.98,0.00,30.5,29.1,00.0,39.7,32.2,10.8,-001.5,0006.53,0014.34,0005.53
2021-10-18 17:27:00,,0821.7,5.01,0.00,30.6,29.2,00.0,39.7,32.3,10.9,-000.8,0006.35,0013.99,0005.40
2021-10-18 17:28:00,,0821.6,4.99,0.00,30.6,29.4,00.0,39.7,32.3,10.9,-000.6,0006.18,0013.90,0005.28
2021-10-18 17:29:00,,0821.7,4.99,0.00,30.6,29.5,00.0,39.7,32.4,10.4,-000.4,0006.06,0014.35,0005.17
2021-10-18 17:30:00,,0821.6,5.00,0.00,30.7,29.6,00.0,39.7,32.4,10.4,0000.7,0005.94,0014.01,0005.03
2021-10-18 17:31:00,,0821.6,5.00,0.00,30.7,29.7,00.0,39.7,32.4,10.9,-000.3,0005.76,0014.19,0004.90
2021-10-18 17:32:00,,0821.6,5.00,0.00,30.7,29.7,00.0,39.7,32.5,11.1,-000.2,0005.62,0014.85,0004.81
2021-10-18 17:33:00,,0821.6,5.00,0.00,30.7,29.8,00.0,39.7,32.5,11.0,0000.7,0005.51,0014.57,0004.73
2021-10-18 17:34:00,,0821.6,5.01,0.00,30.8,29.8,00.0,39.7,32.5,11.2,0000.9,0005.41,0014.07,0004.65
2021-10-18 17:35:00,,0821.6,4.99,0.00,30.8,29.9,00.0,39.7,32.6,11.3,0000.3,0005.34,0013.47,0004.60
2021-10-18 17:36:00,,0821.6,5.01,0.00,30.8,30.0,00.0,39.8,32.6,12.0,-000.1,0005.34,0013.56,0004.59
2021-10-18 17:37:00,,0821.6,4.99,0.00,30.8,30.0,00.0,39.8,32.6,12.0,0000.6,0005.37,0013.84,0004.61
2021-10-18 17:38:00,,0821.6,5.01,0.00,30.9,30.0,00.0,39.8,32.6,12.0,0000.3,0005.41,0013.89,0004.63
2021-10-18 17:39:00,,0821.6,4.99,0.00,30.9,30.0,00.0,39.8,32.6,12.1,0000.4,0005.50,0013.69,0004.68
2021-10-18 17:40:00,,0821.5,5.00,0.00,30.9,28.4,00.0,39.8,32.3,12.1,0001.0,0005.61,0013.59,0004.75
2021-10-18 17:41:00,,0821.5,5.00,0.00,30.7,26.8,00.0,39.8,31.8,12.1,0000.2,0005.71,0014.50,0004.84
2021-10-18 17:42:00,,0821.4,5.00,0.00,30.5,26.9,00.0,39.8,31.8,12.0,0000.3,0005.83,0013.95,0004.90
2021-10-18 17:43:00,,0821.4,5.01,0.00,30.5,27.3,00.0,39.7,31.9,12.2,-000.6,0005.97,0013.06,0004.96
2021-10-18 17:44:00,,0821.4,5.00,0.00,30.4,27.7,00.0,39.6,31.9,12.3,-000.4,0006.09,0013.20,0005.03
2021-10-18 17:45:00,,0821.4,4.99,0.00,30.4,28.1,00.0,39.6,32.0,12.4,0000.1,0006.20,0013.34,0005.09
2021-10-18 17:46:00,,0821.4,5.01,0.00,30.4,28.5,00.0,39.6,32.0,12.2,0000.6,0006.32,0013.48,0005.13
2021-10-18 17:47:00,,0821.4,4.98,0.00,30.4,28.7,00.0,39.6,32.1,11.9,0001.3,0006.33,0014.00,0005.13
2021-10-18 17:48:00,,0821.4,5.01,0.00,30.4,28.9,00.0,39.6,32.1,11.9,0001.0,0006.31,0014.82,0005.11
2021-10-18 17:49:00,,0821.4,5.00,0.00,30.5,29.1,00.0,39.6,32.2,11.7,0000.6,0006.29,0014.86,0005.09
2021-10-18 17:50:00,,0821.4,5.01,0.00,30.5,29.3,00.0,39.6,32.2,11.6,0000.3,0006.21,0015.53,0005.04
2021-10-18 17:51:00,,0821.4,5.00,0.00,30.5,29.4,00.0,39.6,32.3,11.8,0000.3,0006.08,0015.67,0004.99
2021-10-18 17:52:00,,0821.4,4.99,0.00,30.6,29.5,00.0,39.6,32.3,11.5,0000.2,0005.98,0014.58,0004.92
2021-10-18 17:53:00,,0821.4,5.00,0.00,30.6,29.6,00.0,39.6,32.4,11.4,0000.8,0005.90,0014.34,0004.88
2021-10-18 17:54:00,,0821.4,5.00,0.00,30.6,29.6,00.0,39.6,32.4,11.4,0000.6,0005.84,0014.23,0004.83
2021-10-18 17:55:00,,0821.4,5.00,0.00,30.7,29.7,00.0,39.6,32.5,11.6,0001.6,0005.81,0014.45,0004.78
2021-10-18 17:56:00,,0821.4,5.00,0.00,30.7,29.8,00.0,39.6,32.5,11.7,0002.6,0005.77,0014.25,0004.76
2021-10-18 17:57:00,,0821.4,4.99,0.00,30.7,29.9,00.0,39.7,32.5,11.7,0003.7,0005.65,0013.90,0004.73
2021-10-18 17:58:00,,0821.4,4.99,0.00,30.8,29.9,00.0,39.7,32.5,11.7,0003.5,0005.64,0012.76,0004.73
2021-10-18 17:59:00,,0821.4,5.00,0.00,30.7,28.6,00.0,39.7,32.2,11.8,0003.7,0005.64,0012.02,0004.72
